User: anonymous   Login
Location: Unspecified
(0.0000°N, 0.0000°E)
Time: 00:09:57
(UTC+00:00)
Language:

Skynet 4C - Orbit

View from above orbital plane
View from above orbital plane
View from above satellite
View from above satellite

Ground track
Ground track

The orbit data is extracted from the following two-line orbital elements,

1 20776U 90079A   18111.36151976 +.00000116 +00000-0 +00000-0 0  9995
2 20776 013.9315 013.0758 0003027 354.8068 005.1477 01.00275694101051
Epoch (UTC): 21 April 2018 08:40:35
Eccentricity: 0.0003027
inclination: 13.9315°
perigee height: 35772 km
apogee height: 35798 km
right ascension of ascending node: 13.0758°
argument of perigee: 354.8068°
revolutions per day: 1.00275694
mean anomaly at epoch: 5.1477°
orbit number at epoch: 10105

The dashed part of the orbit path shows where the satellite is in the earth's shadow,  

DLR